Regional Weather Roundup
Issued by NWS

Home | Current Version | Previous Version | Graphics & Text | Print | Product List | Glossary Off
Versions: 1 2 3 4 5 6 7 8 9 10 11 12 13 14 15 16 17 18 19 20 21 22 23 24 25 26 27 28 29 30 31 32 33 34 35 36 37 38 39 40 41 42 43 44 45 46 47 48 49 50

000
ASUS43 KTOP 290659
RWRKS

WEATHER ROUNDUP FOR KANSAS
NATIONAL WEATHER SERVICE GOODLAND KS
100 AM CST MON DEC 29 2014

NOTE:  "FAIR" INDICATES FEW OR NO CLOUDS BELOW 12,000 FEET WITH NO
SIGNIFICANT WEATHER AND/OR OBSTRUCTIONS TO VISIBILITY.

KSZ001>006-013>018-027>032-041>047-290800-
NORTHWEST KANSAS

CITY           SKY/WX    TMP DP  RH WIND       PRES   REMARKS
GOODLAND       CLEAR     10   7  87 CALM      30.00F
HAYS           CLEAR     23  12  63 E7        30.08F
HILL CITY      CLEAR     20  16  84 CALM      30.08F
RUSSELL        CLEAR     26  20  77 SE9       30.09S
$$

KSZ061>065-074>080-084>089-290800-
SOUTHWEST KANSAS

CITY           SKY/WX    TMP DP  RH WIND       PRES   REMARKS
DODGE CITY     CLEAR     22  17  81 SE8       30.03S
ELKHART          N/A     21  13  71 NW6         N/A
GARDEN CITY    CLEAR     18  14  84 E6        30.00F
GREAT BEND     CLEAR     23  16  74 SE5       30.10S
LIBERAL        CLEAR     25  14  63 E3        30.00F
$$

KSZ066>073-081>083-090>101-290800-
SOUTHEAST KANSAS

CITY           SKY/WX    TMP DP  RH WIND       PRES   REMARKS
CHANUTE        CLEAR     24  20  84 E5        30.18F
COFFEYVILLE    CLEAR     22  20  92 NW3       30.19F
HUTCHINSON     CLEAR     25  17  72 SE7       30.12F
MEDICINE LODGE   N/A     27  20  75 E8        30.09F
NEWTON         PTCLDY    25  16  68 SE7       30.15S
PARSONS        CLEAR     20  18  92 CALM      30.19F
WICHITA INTL   PTCLDY    26  17  68 E6        30.13F
WICHITA JABRA  CLEAR     24  18  77 SE3       30.14S
WINFIELD       CLEAR     25  20  81 E5        30.14F
$$

KSZ007>012-019>026-033>040-048>060-102>105-290800-
NORTHEAST KANSAS

CITY           SKY/WX    TMP DP  RH WIND       PRES   REMARKS
CONCORDIA      FAIR      27  20  75 CALM      30.14R
EMPORIA        MOCLDY    25  18  74 SE6       30.17S
LAWRENCE       CLOUDY    27  22  81 E3        30.21R
MANHATTAN      PTCLDY    26  19  74 CALM      30.17F
OLATHE IND     CLOUDY    29  21  72 SE6       30.20S
OLATHE EXE     CLOUDY    28  22  78 SE3       30.19S
SALINA         PTCLDY    23  18  81 CALM      30.16R
TOPEKA BILLARD MOCLDY    29  24  82 CALM      30.20S
TOPEKA FORBES  MOCLDY    27  21  78 SE6       30.18S
$$


USA.gov is the U.S. government's official web portal to all federal, state and local government web resources and services.